Location: Kalberh�ni
(46.4610°N, 7.2453°E)
Time: 12:40:28
(UTC+00:00)

Cosmos 1802 Rocket - Visible Passes

Search period start: 23 October 2021 00:00
Search period end: 02 November 2021 00:00
Orbit: 953 x 1012 km, 82.9° (Epoch: 22 October)

Date Brightness Start Highest point End Pass type
(mag) Time Alt. Az. Time Alt. Az. Time Alt. Az.
23 Oct 6.8 04:31:32 10° NNE 04:34:25 13° ENE 04:37:18 10° E visible
23 Oct 5.7 18:13:19 14° NE 18:13:19 14° NE 18:14:32 10° NNE visible
23 Oct 5.4 19:58:05 29° N 19:58:05 29° N 20:01:03 10° N visible
23 Oct 6.8 21:42:51 10° NW 21:42:51 10° NW 21:43:13 10° NW visible
24 Oct 6.4 04:57:46 10° NNE 05:02:39 23° ENE 05:07:34 10° ESE visible
24 Oct 5.1 18:39:56 26° NE 18:39:56 26° NE 18:42:52 10° NNE visible
24 Oct 5.6 20:24:40 29° NW 20:24:40 29° NW 20:28:21 10° N visible
25 Oct 5.5 05:24:47 10° N 05:30:39 40° ENE 05:36:34 10° SE visible
25 Oct 5.7 17:21:17 11° ENE 17:21:17 11° ENE 17:22:03 10° ENE visible
25 Oct 4.2 18:58:30 10° S 19:05:58 54° NNE 19:10:45 10° NNE visible
25 Oct 6.1 20:50:37 20° WNW 20:50:50 20° WNW 20:55:15 10° NNW visible
26 Oct 6.8 04:08:58 10° NNE 04:11:41 13° ENE 04:14:24 10° E visible
26 Oct 5.0 17:42:45 10° SE 17:47:15 22° E 17:51:46 10° NE visible
26 Oct 4.2 19:26:09 10° SSW 19:32:13 64° WNW 19:38:21 10° N visible
26 Oct 6.7 21:17:24 10° WNW 21:19:08 11° WNW 21:20:51 10° NW visible
27 Oct 6.4 04:35:06 10° NNE 04:39:56 23° ENE 04:44:48 10° ESE visible
27 Oct 4.3 18:08:52 10° SSE 18:14:28 39° E 18:20:08 10° NNE visible
27 Oct 5.3 19:54:28 10° SW 20:00:02 36° WNW 20:05:41 10° N visible
28 Oct 5.6 05:02:06 10° N 05:07:57 39° ENE 05:13:49 10° SE visible
28 Oct 5.6 16:56:05 10° E 16:57:34 11° ENE 16:59:02 10° ENE visible
28 Oct 3.8 18:35:49 10° S 18:41:53 71° E 18:48:02 10° NNE visible
28 Oct 6.1 20:23:36 10° WSW 20:28:05 21° WNW 20:32:37 10° NNW visible
29 Oct 6.8 03:46:23 10° NE 03:48:56 12° ENE 03:51:30 10° E visible
29 Oct 4.5 05:29:27 10° N 05:35:45 68° E 05:42:05 10° SSE visible
29 Oct 5.0 17:20:10 10° SE 17:24:34 21° E 17:29:01 10° NE visible
29 Oct 4.2 19:03:25 10° SSW 19:09:30 66° W 19:15:40 10° N visible
29 Oct 6.7 20:54:20 10° WNW 20:56:22 12° WNW 20:58:26 10° NW visible
30 Oct 6.4 04:12:26 10° NNE 04:17:13 22° ENE 04:22:00 10° ESE visible
30 Oct 4.4 17:46:14 10° SSE 17:51:47 38° E 17:57:24 10° NNE visible
30 Oct 5.3 19:31:42 10° SW 19:37:18 37° WNW 19:43:00 10° N visible
31 Oct 5.6 04:39:24 10° N 04:45:14 38° ENE 04:51:06 10° SE visible
31 Oct 3.8 18:13:07 10° S 18:19:11 69° E 18:25:20 10° NNE visible
31 Oct 6.1 20:00:46 10° WSW 20:05:21 21° WNW 20:09:59 10° NNW visible
01 Nov 6.9 03:23:49 10° NE 03:26:12 12° ENE 03:28:35 10° E visible
01 Nov 4.5 05:06:46 10° N 05:13:03 66° E 05:19:24 10° SSE visible
01 Nov 5.1 16:57:34 10° SE 17:01:53 20° E 17:06:14 10° NE visible
01 Nov 4.2 18:40:41 10° SSW 18:46:46 68° W 18:52:58 10° N visible
01 Nov 6.7 20:31:18 10° W 20:33:37 12° WNW 20:35:58 10° NW visible
